NOAA NWS Hourly Roundups by Site

Regional Weather Roundup for Green Bay, WI

To Select Another Site Choose from List

Select Site:  

000
ASUS43 KGRB 010159
RWRGRB

NORTH-CENTRAL AND NORTHEAST WISCONSIN REGIONAL WEATHER ROUNDUP
NATIONAL WEATHER SERVICE GREEN BAY WI
900 PM CDT FRI SEP 30 2022

WIZ005-009-010>012-018-019-010300-
NORTH CENTRAL WISCONSIN

CITY           SKY/WX    TMP DP  RH WIND       PRES   REMARKS
IRONWOOD       CLEAR     48  46  93 CALM      30.20R
MANITOWISH WTR CLEAR     43  43 100 CALM      30.21R FOG
ARBOR VITAE    CLEAR     48  44  85 CALM      30.21R
EAGLE RIVER    CLEAR     43  38  82 CALM      30.21S
LAND O LAKES   CLEAR     43  42  95 CALM      30.23R
RHINELANDER    CLEAR     44  38  79 CALM      30.22R
PHILLIPS       PTCLDY    45  44  95 CALM      30.20S
ANTIGO         CLEAR     44  40  86 CALM      30.22R
TOMAHAWK       CLEAR     42  39  87 CALM      30.21S
MERRILL        CLEAR     45  44  95 CALM      30.20R
$$

WIZ013-073-010300-
NORTHEAST WISCONSIN

CITY           SKY/WX    TMP DP  RH WIND       PRES   REMARKS
IRON MOUNTAIN  CLEAR     47  43  86 CALM      30.19S
MARINETTE      CLEAR     52  49  89 NW7       30.22R
OCONTO         CLEAR     46  46 100 CALM      30.21S
$$

WIZ017-030-035>037-045-010300-
CENTRAL WISCONSIN

CITY           SKY/WX    TMP DP  RH WIND       PRES   REMARKS
MEDFORD        CLEAR     44  44 100 CALM      30.20S
WAUSAU         CLEAR     51  43  74 CALM      30.19S
MOSINEE        CLEAR     50  43  76 CALM      30.22R
MARSHFIELD     PTCLDY    54  45  71 CALM      30.20R
WISC RAPIDS    CLEAR     51  45  79 CALM      30.20S
STEVENS POINT  CLEAR     50  44  80 CALM      30.21S
WAUPACA        CLEAR     50  48  92 CALM      30.21S
SHAWANO        CLEAR     48  48  97 CALM      30.20S
CLINTONVILLE   CLEAR     47  44  88 CALM      30.23R
WAUTOMA        CLEAR     48  46  93 CALM      30.21R
$$

WIZ038-039-048-051-010300-
FOX VALLEY

CITY           SKY/WX    TMP DP  RH WIND       PRES   REMARKS
NWS GREEN BAY  CLEAR     50  46  86 CALM      30.22R
APPLETON       CLEAR     54  46  76 CALM      30.20R
OSHKOSH        CLEAR     51  47  86 S3        30.21R
FOND DU LAC    CLEAR     52  47  83 SE6       30.21S
$$

WIZ022-050-052-010300-
EAST CENTRAL WISCONSIN

CITY           SKY/WX    TMP DP  RH WIND       PRES   REMARKS
EPHRAIM        FAIR      51  48  90 S3        30.21S
WASHINGTON ISL CLOUDY    46  46 100 CALM      30.22R
STURGEON BAY   CLEAR     53  49  86 S3        30.22S
MANITOWOC      CLEAR     48  47  96 CALM      30.22S
SHEBOYGAN      CLEAR     49  46  90 CALM      30.21S
$$

LMZ563-521-522-541>543-010300-
LAKESHORE

STATION/POSITION TIME  TEMP    WIND        PRES    VSBY  WAVE
                       AIR SEA DIR/SP/G                  HT/PER
                 (UTC) (F)     (DEG/KT/KT) (MB)    (MI)  (FT/S)
SHEBOYGAN LKSHOR 0100   59     140/  6/  7 1023.3F
KEWAUNEE LKSHORE 0130   51     290/  2/  3 1022.3R
NORTHPORT PIER   0100          160/  3/  4 1023.4
N MID LAKE BUOY  0140   58 61  180/  8/ 10 1023.2R
CHAMBERS ISLAND  0130   55     100/  3/  4   N/A
GREEN BAY WEST   0130   56     160/  2/  5 1021.6S
MENOMINEE LKSHOR 0130   58 60  180/  8/ 10 1021.5S
$$


 

View Past Reports for Green Bay, WI.

Products Courtesy of NOAA-NWS
NWS Information Parsing Script by Ken True at Saratoga Weather - Script by SE Lincoln Weather.